Athens, GA

8:45 AM EST on February 07, 2016 (GMT -0500)
Athens / Epps

Weather History for KAHN - February, 2013

Change the Weather History Date:

Thursday, February 14, 2013

  Actual Average Record
Temperature  
Mean Temperature 44 °F 47 °F  
Max Temperature 55 °F 58 °F 79 °F (1938)
Min Temperature 32 °F 36 °F 4 °F (1905)
Degree Days  
Heating Degree Days 21 18  
Month to date heating degree days 262 269  
Since 1 July heating degree days 1731 2026  
Moisture  
Dew Point 32 °F    
Average Humidity 64    
Maximum Humidity 89    
Minimum Humidity 38    
Precipitation  
Precipitation 0.00 in 0.17 in 2.50 in (1935)
Month to date precipitation 2.39 2.20  
Year to date precipitation 7.36 6.25  
Snow  
Snow 0.00 in 0.00 in T in (2012)
Month to date snowfall 0.0 0.3  
Since 1 July snowfall 0.0 1.8  
Snow Depth -    
Sea Level Pressure  
Sea Level Pressure 30.03 in    
Wind  
Wind Speed 4 mph (West)    
Max Wind Speed 10 mph    
Max Gust Speed 15 mph    
Visibility 9 miles    
Events      
T = Trace of Precipitation, MM = Missing Value Source: NWS Daily Summary

Daily Weather History Graph

Daily Weather History Graph

Search for Another Location

Airport or City:

Trip Planner

Search our weather history database for the weather conditions in past years. The results will help you decide how hot, cold, wet, or windy it might be!

Date:

Astronomy

Feb. 14, 2013 Rise Set
Actual Time 7:18 AM EST 6:16 PM EST
Civil Twilight 6:53 AM EST 6:42 PM EST
Nautical Twilight 6:23 AM EST 7:11 PM EST
Astronomical Twilight 5:54 AM EST 7:40 PM EST
Moon 9:35 AM EST (2/14) 11:01 PM EST (2/14)
Length of Visible Light 11h 49m
Length of Day
10h 58m
Waxing Crescent, 21% of the Moon is Illuminated
Feb 14
Waxing Crescent
Feb 17
First Quarter
Feb 25
Full
Mar 4
Last Quarter
Mar 11
New

Hourly Weather History & Observations

Time (EST) Temp. Windchill Dew Point Humidity Pressure Visibility Wind Dir Wind Speed Gust Speed Precip Events Conditions
12:51 AM 37.9 °F 32.7 °F 33.1 °F 83% 29.94 in 10.0 mi WNW 6.9 mph - N/A   Clear
1:51 AM 37.4 °F 32.8 °F 32.0 °F 81% 29.95 in 9.0 mi WNW 5.8 mph - N/A   Clear
2:51 AM 35.1 °F 31.0 °F 30.9 °F 85% 29.96 in 8.0 mi West 4.6 mph - N/A   Clear
3:51 AM 35.6 °F 29.9 °F 30.2 °F 81% 29.95 in 8.0 mi WNW 6.9 mph - N/A   Clear
4:51 AM 35.1 °F 30.1 °F 30.9 °F 85% 29.97 in 7.0 mi NW 5.8 mph - N/A   Clear
5:51 AM 35.6 °F 31.7 °F 30.2 °F 81% 29.97 in 7.0 mi NW 4.6 mph - N/A   Clear
6:51 AM 33.8 °F 29.6 °F 30.2 °F 87% 30.02 in 7.0 mi West 4.6 mph - N/A   Clear
7:51 AM 34.0 °F 28.0 °F 30.9 °F 89% 30.04 in 6.0 mi NW 6.9 mph - N/A   Clear
8:51 AM 37.0 °F 31.0 °F 32.0 °F 82% 30.06 in 7.0 mi NW 8.1 mph - N/A   Clear
9:51 AM 39.0 °F 34.8 °F 33.1 °F 79% 30.09 in 8.0 mi NW 5.8 mph - N/A   Clear
10:51 AM 43.0 °F - 33.1 °F 68% 30.11 in 9.0 mi Calm Calm - N/A   Clear
11:51 AM 46.0 °F - 33.1 °F 61% 30.09 in 10.0 mi Calm Calm - N/A   Clear
12:51 PM 50.0 °F - 32.0 °F 50% 30.06 in 10.0 mi West 6.9 mph - N/A   Clear
1:51 PM 51.1 °F - 33.1 °F 50% 30.04 in 10.0 mi West 6.9 mph - N/A   Clear
2:51 PM 53.1 °F - 32.0 °F 45% 30.04 in 10.0 mi Variable 4.6 mph - N/A   Clear
3:51 PM 55.0 °F - 32.0 °F 42% 30.03 in 10.0 mi Variable 3.5 mph - N/A   Clear
4:51 PM 55.0 °F - 30.9 °F 40% 30.02 in 10.0 mi WNW 6.9 mph - N/A   Clear
5:51 PM 52.0 °F - 30.9 °F 45% 30.01 in 10.0 mi SW 3.5 mph - N/A   Clear
6:51 PM 48.0 °F - 32.0 °F 54% 30.02 in 10.0 mi Calm Calm - N/A   Clear
7:51 PM 45.0 °F - 32.0 °F 60% 30.05 in 10.0 mi Calm Calm - N/A   Clear
8:51 PM 43.0 °F - 32.0 °F 65% 30.06 in 10.0 mi Calm Calm - N/A   Clear
9:51 PM 39.9 °F 37.8 °F 33.1 °F 77% 30.06 in 10.0 mi SW 3.5 mph - N/A   Clear
10:51 PM 36.0 °F 33.3 °F 32.0 °F 86% 30.08 in 10.0 mi SSW 3.5 mph - N/A   Clear
11:51 PM 37.9 °F 35.5 °F 33.1 °F 83% 30.09 in 10.0 mi SW 3.5 mph - N/A   Clear